Location: Natural Bridges National Monument
(37.6093°N, 109.9767°W)
Time: 19:48:14
(UTC-06:00)

Amateur Radio Satellites - All Passes

Search period start: 25 October 2014 19:18
Search period end: 26 October 2014 19:18
Location: Natural Bridges National Monument, 37.6093°N, 109.9767°W

Satellite Date Start Highest point End Downlink Frequencies (MHz)
Time Altitude Azimuth
OPAL 25 Oct 19:38:21 19:42:33 28° 294° (WNW) 19:46:44 ?
STRAND 1 25 Oct 19:44:59 19:49:52 42° 99° (E) 19:54:42 ?
HO-68 25 Oct 19:49:12 19:53:32 17° 56° (ENE) 19:57:51 435.675 MHz FM
ISS 25 Oct 19:59:17 20:02:37 77° 222° (SW) 20:05:56 145.800 FM
SO-67 25 Oct 20:37:18 20:39:24 15° 266° (W) 20:41:31 435.3500 MHz FM
KITSAT 1 25 Oct 20:42:14 20:49:18 32° 48° (NE) 20:56:19 435.175 FM
SO-50 25 Oct 21:04:25 21:07:52 19° 46° (NE) 21:11:19 436.795 FM
RS-15 25 Oct 21:11:12 21:19:55 28° 104° (ESE) 21:28:29 29.354 - 29.394 USB, Beacon 29.352 USB
STRAND 1 25 Oct 21:24:52 21:28:44 22° 294° (WNW) 21:32:36 ?
HO-68 25 Oct 21:33:07 21:40:17 87° 254° (WSW) 21:47:30 435.675 MHz FM
ZACube-1 25 Oct 21:40:08 21:42:28 14° 65° (ENE) 21:44:47 437.345 MHz
UKube-1 25 Oct 21:41:24 21:45:23 36° 71° (ENE) 21:49:23 145.840 MHz, 145.915 MHz
Oscar 11 25 Oct 22:21:35 22:25:55 87° 257° (WSW) 22:30:16 145.825 FM, Beacon 2401.500 USB
FUNcube-1 25 Oct 22:22:23 22:26:38 39° 72° (ENE) 22:30:50 145.950 - 145.970 MHz USB
UOSAT-12 25 Oct 22:23:39 22:25:21 12° 40° (NE) 22:27:03 437.025 FM, 437.400 FM
KITSAT 1 25 Oct 22:37:13 22:45:07 60° 247° (WSW) 22:52:59 435.175 FM
SO-50 25 Oct 22:44:00 22:48:46 57° 243° (WSW) 22:53:33 436.795 FM
ZACube-1 25 Oct 23:13:53 23:18:23 54° 260° (W) 23:22:51 437.345 MHz
UKube-1 25 Oct 23:18:44 23:21:40 18° 266° (W) 23:24:36 145.840 MHz, 145.915 MHz
RS-15 25 Oct 23:20:12 23:31:12 72° 303° (WNW) 23:42:09 29.354 - 29.394 USB, Beacon 29.352 USB
HO-68 25 Oct 23:25:43 23:28:50 13° 270° (W) 23:31:58 435.675 MHz FM
MaSat-1 25 Oct 23:45:28 23:49:34 56° 112° (ESE) 23:53:19 437.345 MHz
FUNcube-1 25 Oct 23:59:59 00:03:06 18° 266° (W) 00:06:12 145.950 - 145.970 MHz USB
UOSAT-12 26 Oct 00:01:32 00:06:16 81° 59° (ENE) 00:10:54 437.025 FM, 437.400 FM
MaSat-1 26 Oct 01:23:58 01:25:21 12° 304° (NW) 01:26:42 437.345 MHz
RS-15 26 Oct 01:37:44 01:45:53 23° 330° (NNW) 01:54:08 29.354 - 29.394 USB, Beacon 29.352 USB
JAS-1B 26 Oct 02:05:20 02:11:25 30° 98° (E) 02:18:25 435.800 - 435.900 CW/SSB
Oscar 19 26 Oct 02:05:52 02:10:05 25° 95° (E) 02:14:16 437.125 CW, 437.150 USB
AO-27 26 Oct 02:27:40 02:30:54 16° 92° (E) 02:34:07 436.795 MHz FM
AO-Echo 26 Oct 02:36:24 02:40:56 28° 95° (E) 02:45:25 ?
Oscar 16 26 Oct 02:51:11 02:56:19 75° 103° (ESE) 03:01:25 437.025 USB, Beacon 2401.1428
Sapphire 26 Oct 02:53:44 02:56:49 16° 104° (ESE) 02:59:55 437.095 MHz 1200 baud AX-25 AFSK
Uribyol 2 26 Oct 03:13:14 03:18:17 49° 100° (E) 03:23:17 436.500 FM
PCSat 26 Oct 03:14:28 03:18:58 27° 108° (ESE) 03:23:29 145.825 MHz
ITAMSAT 1 26 Oct 03:19:34 03:24:41 53° 100° (E) 03:29:45 435.822 SSB
Oscar 19 26 Oct 03:44:51 03:49:25 34° 291° (WNW) 03:53:59 437.125 CW, 437.150 USB
Gurwin Techsat 1B 26 Oct 03:47:13 03:52:24 52° 100° (E) 03:57:33 435.225 FM
JAS-1B 26 Oct 03:55:33 04:02:02 49° 289° (WNW) 04:09:44 435.800 - 435.900 CW/SSB
TMSAT-1 26 Oct 03:57:36 04:02:44 47° 99° (E) 04:07:49 436.925 FM
RS-15 26 Oct 03:58:27 04:04:18 15° 8° (N) 04:10:13 29.354 - 29.394 USB, Beacon 29.352 USB
AO-27 26 Oct 04:05:37 04:10:43 54° 288° (WNW) 04:15:47 436.795 MHz FM
AO-Echo 26 Oct 04:14:54 04:19:39 34° 291° (WNW) 04:24:23 ?
AO-7 26 Oct 04:16:38 04:22:20 20° 93° (E) 04:27:59 29.400 - 29.500 MHz
Oscar 16 26 Oct 04:32:52 04:35:00 13° 299° (WNW) 04:37:07 437.025 USB, Beacon 2401.1428
Sapphire 26 Oct 04:34:18 04:39:39 63° 300° (WNW) 04:45:03 437.095 MHz 1200 baud AX-25 AFSK
Uribyol 2 26 Oct 04:53:45 04:57:21 19° 296° (WNW) 05:00:56 436.500 FM
PCSat 26 Oct 04:57:10 05:02:11 38° 304° (NW) 05:07:13 145.825 MHz
ITAMSAT 1 26 Oct 05:00:17 05:03:43 18° 296° (WNW) 05:07:08 435.822 SSB
OPAL 26 Oct 05:12:15 05:17:08 45° 69° (ENE) 05:21:58 ?
Gurwin Techsat 1B 26 Oct 05:28:18 05:31:56 19° 296° (WNW) 05:35:33 435.225 FM
TMSAT-1 26 Oct 05:38:27 05:42:15 20° 295° (WNW) 05:46:03 436.925 FM
JAS-2 26 Oct 05:48:46 05:55:25 30° 93° (E) 06:01:56 435.800 - 435.900 CW/SSB, 435.910 FM
Uosat F 26 Oct 06:00:38 06:05:42 79° 285° (WNW) 06:10:43 435.120 FM
AO-7 26 Oct 06:07:29 06:15:49 79° 290° (WNW) 06:24:09 29.400 - 29.500 MHz
RS-15 26 Oct 06:11:44 06:21:37 35° 41° (NE) 06:31:47 29.354 - 29.394 USB, Beacon 29.352 USB
Hamsat 26 Oct 06:15:36 06:18:36 19° 94° (E) 06:21:37 145.90 MHz
Sapphire 26 Oct 06:23:31 06:24:10 10° 319° (NW) 06:24:50 437.095 MHz 1200 baud AX-25 AFSK
OPAL 26 Oct 06:52:29 06:56:10 20° 264° (W) 06:59:50 ?
PANSAT 26 Oct 06:54:10 06:55:52 13° 164° (SSE) 06:57:34 not established
STRAND 1 26 Oct 06:58:58 07:03:54 50° 72° (ENE) 07:08:52 ?
Saudisat 1A 26 Oct 07:00:11 07:03:54 28° 113° (ESE) 07:07:38 436.775 MHz
JAS-2 26 Oct 07:33:02 07:40:38 57° 289° (WNW) 07:48:09 435.800 - 435.900 CW/SSB, 435.910 FM
Hamsat 26 Oct 07:50:52 07:54:35 31° 288° (WNW) 07:58:18 145.90 MHz
SO-67 26 Oct 08:00:57 08:04:10 36° 98° (E) 08:07:22 435.3500 MHz FM
AO-7 26 Oct 08:02:33 08:07:18 17° 309° (NW) 08:12:04 29.400 - 29.500 MHz
RS-15 26 Oct 08:23:48 08:34:58 74° 244° (WSW) 08:46:39 29.354 - 29.394 USB, Beacon 29.352 USB
PANSAT 26 Oct 08:32:31 08:35:23 20° 177° (S) 08:38:16 not established
Saudisat 1A 26 Oct 08:39:35 08:43:22 28° 309° (NW) 08:47:12 436.775 MHz
STRAND 1 26 Oct 08:40:00 08:43:20 17° 267° (W) 08:46:41 ?
HO-68 26 Oct 09:04:32 09:09:25 19° 93° (E) 09:14:17 435.675 MHz FM
JAS-2 26 Oct 09:22:29 09:24:01 11° 307° (NW) 09:25:34 435.800 - 435.900 CW/SSB, 435.910 FM
MaSat-1 26 Oct 09:33:14 09:35:44 53° 64° (ENE) 09:38:04 437.345 MHz
Oscar 10/S400 26 Oct 09:33:52 00:14:30 43° 220° (SW) 10:08:56 145.825 - 145.975 CW/USB, Beacon 145.810 USB
SO-67 26 Oct 09:35:50 09:36:46 11° 293° (WNW) 09:37:43 435.3500 MHz FM
Oscar 11 26 Oct 10:12:00 10:15:07 19° 94° (E) 10:18:13 145.825 FM, Beacon 2401.500 USB
PANSAT 26 Oct 10:12:22 10:14:58 17° 189° (S) 10:17:34 not established
RS-15 26 Oct 10:40:11 10:45:26 14° 262° (W) 10:50:48 29.354 - 29.394 USB, Beacon 29.352 USB
HO-68 26 Oct 10:50:30 10:57:40 71° 289° (WNW) 11:04:47 435.675 MHz FM
ZACube-1 26 Oct 11:05:29 11:09:15 31° 97° (E) 11:12:58 437.345 MHz
UKube-1 26 Oct 11:07:02 11:11:26 90° 106° (ESE) 11:15:47 145.840 MHz, 145.915 MHz
KITSAT 1 26 Oct 11:09:45 11:15:56 25° 104° (ESE) 11:22:07 435.175 FM
Sapphire 26 Oct 11:43:38 11:45:07 11° 42° (NE) 11:46:36 437.095 MHz 1200 baud AX-25 AFSK
Oscar 11 26 Oct 11:47:30 11:51:20 32° 289° (WNW) 11:55:09 145.825 FM, Beacon 2401.500 USB
FUNcube-1 26 Oct 11:49:29 11:53:43 76° 284° (WNW) 11:57:51 145.950 - 145.970 MHz USB
PCSat 26 Oct 12:04:24 12:07:57 17° 47° (NE) 12:11:29 145.825 MHz
Oscar 16 26 Oct 12:32:08 12:32:48 10° 60° (ENE) 12:33:27 437.025 USB, Beacon 2401.1428
ISS 26 Oct 12:39:46 12:43:05 80° 320° (NW) 12:46:25 145.800 FM
HO-68 26 Oct 12:41:18 12:44:06 13° 307° (NW) 12:46:53 435.675 MHz FM
ZACube-1 26 Oct 12:42:26 12:45:25 19° 292° (WNW) 12:48:22 437.345 MHz
JAS-1B 26 Oct 12:52:25 12:55:53 16° 62° (ENE) 12:59:16 435.800 - 435.900 CW/SSB
SO-50 26 Oct 12:56:52 13:01:19 75° 119° (ESE) 13:05:55 436.795 FM
KITSAT 1 26 Oct 13:02:37 13:10:38 67° 302° (WNW) 13:18:41 435.175 FM
Oscar 19 26 Oct 13:20:54 13:25:23 31° 69° (ENE) 13:29:53 437.125 CW, 437.150 USB
Sapphire 26 Oct 13:24:08 13:29:34 68° 61° (ENE) 13:34:57 437.095 MHz 1200 baud AX-25 AFSK
AO-27 26 Oct 13:43:54 13:47:48 22° 65° (ENE) 13:51:43 436.795 MHz FM
PCSat 26 Oct 13:46:30 13:51:55 71° 245° (WSW) 13:57:17 145.825 MHz
AO-Echo 26 Oct 13:47:43 13:51:51 28° 68° (ENE) 13:56:07 ?
Oscar 16 26 Oct 14:06:10 14:11:20 89° 76° (ENE) 14:16:31 437.025 USB, Beacon 2401.1428
UOSAT-12 26 Oct 14:10:57 14:15:12 38° 114° (ESE) 14:19:32 437.025 FM, 437.400 FM
ISS 26 Oct 14:18:18 14:20:13 14° 338° (NNW) 14:22:08 145.800 FM
Uribyol 2 26 Oct 14:29:06 14:34:14 62° 73° (ENE) 14:39:24 436.500 FM
ITAMSAT 1 26 Oct 14:35:36 14:40:45 67° 74° (ENE) 14:45:57 435.822 SSB
SO-50 26 Oct 14:40:01 14:42:26 14° 317° (NW) 14:44:54 436.795 FM
JAS-1B 26 Oct 14:40:10 14:46:05 60° 258° (WSW) 14:51:42 435.800 - 435.900 CW/SSB
Oscar 19 26 Oct 15:00:17 15:04:40 28° 264° (W) 15:09:04 437.125 CW, 437.150 USB
KITSAT 1 26 Oct 15:02:46 15:07:42 17° 324° (NW) 15:12:39 435.175 FM
Gurwin Techsat 1B 26 Oct 15:06:21 15:11:36 68° 74° (ENE) 15:16:53 435.225 FM
Sapphire 26 Oct 15:09:33 15:12:20 14° 257° (WSW) 15:15:07 437.095 MHz 1200 baud AX-25 AFSK
AO-7 26 Oct 15:13:55 15:20:18 26° 57° (ENE) 15:26:40 29.400 - 29.500 MHz
TMSAT-1 26 Oct 15:16:24 15:21:36 62° 73° (ENE) 15:26:50 436.925 FM
AO-27 26 Oct 15:22:04 15:26:59 43° 261° (W) 15:31:58 436.795 MHz FM
AO-Echo 26 Oct 15:26:16 15:30:31 30° 264° (W) 15:34:54 ?
Saudisat 1A 26 Oct 15:28:56 15:31:40 16° 45° (NE) 15:34:24 436.775 MHz
Uosat F 26 Oct 15:36:28 15:38:46 13° 62° (ENE) 15:41:05 435.120 FM
UOSAT-12 26 Oct 15:51:38 15:55:26 24° 311° (NW) 15:59:18 437.025 FM, 437.400 FM
Uribyol 2 26 Oct 16:11:21 16:14:05 14° 268° (W) 16:16:51 436.500 FM
ITAMSAT 1 26 Oct 16:18:19 16:20:41 13° 269° (W) 16:23:03 435.822 SSB
Gurwin Techsat 1B 26 Oct 16:49:34 16:52:01 13° 269° (W) 16:54:29 435.225 FM
TMSAT-1 26 Oct 16:59:02 17:01:54 15° 269° (W) 17:04:47 436.925 FM
AO-7 26 Oct 17:04:06 17:12:20 71° 255° (WSW) 17:20:37 29.400 - 29.500 MHz
Saudisat 1A 26 Oct 17:07:15 17:11:37 59° 243° (WSW) 17:15:56 436.775 MHz
Hamsat 26 Oct 17:09:00 17:10:20 11° 65° (ENE) 17:11:39 145.90 MHz
Uosat F 26 Oct 17:11:56 17:16:55 70° 258° (WSW) 17:21:58 435.120 FM
OPAL 26 Oct 17:26:07 17:28:14 13° 93° (E) 17:30:20 ?
ISS 26 Oct 17:34:40 17:36:08 12° 19° (NNE) 17:37:36 145.800 FM
JAS-2 26 Oct 17:42:46 17:48:34 56° 71° (ENE) 17:55:10 435.800 - 435.900 CW/SSB, 435.910 FM
Hamsat 26 Oct 18:41:39 18:45:46 56° 260° (W) 18:49:54 145.90 MHz
OPAL 26 Oct 19:02:36 19:07:31 64° 288° (WNW) 19:12:23 ?
KITSAT 1 26 Oct 19:04:59 19:07:55 12° 28° (NNE) 19:10:50 435.175 FM
AO-7 26 Oct 19:05:03 19:06:23 10° 272° (W) 19:07:44 29.400 - 29.500 MHz
ISS 26 Oct 19:10:07 19:13:25 56° 37° (NE) 19:16:41 145.800 FM
